Shannon, Ireland

2:02 AM IST on September 23, 2017 (GMT +0100)
Shannon

Weather History for EINN - September, 2012

Change the Weather History Date:

Thursday, September 6, 2012

  Actual Average Record
Temperature  
Mean Temperature 58 °F -  
Max Temperature 66 °F 62 °F 74 °F (2016)
Min Temperature 49 °F 49 °F 41 °F (2015)
Degree Days  
Heating Degree Days 8    
Growing Degree Days 8 (Base 50)    
Moisture  
Dew Point 52 °F    
Average Humidity 85    
Maximum Humidity 100    
Minimum Humidity 59    
Precipitation  
Precipitation 0.00 in 0.11 in - ()
Sea Level Pressure  
Sea Level Pressure 30.33 in    
Wind  
Wind Speed 7 mph ()    
Max Wind Speed 16 mph    
Max Gust Speed -    
Visibility 7.3 miles    
Events      
Averages and records for this station are not official NWS values.
T = Trace of Precipitation, MM = Missing Value Source: Averaged Metar Reports

Daily Weather History Graph

Daily Weather History Graph

Search for Another Location

Airport or City:

Trip Planner

Search our weather history database for the weather conditions in past years. The results will help you decide how hot, cold, wet, or windy it might be!

Date:

Astronomy

Sep. 06, 2012 Rise Set
Actual Time 6:55 AM IST 8:11 PM IST
Civil Twilight 6:19 AM IST 8:46 PM IST
Nautical Twilight 5:36 AM IST 9:29 PM IST
Astronomical Twilight 4:49 AM IST 10:16 PM IST
Moon 10:17 PM IST (9/6) 1:36 PM IST (9/6)
Length of Visible Light 14h 26m
Length of Day
13h 16m
Waning Gibbous, 69% of the Moon is Illuminated
Sep 6
Waning Gibbous
Sep 8
Last Quarter
Sep 16
New
Sep 22
First Quarter
Sep 30
Full

Hourly Weather History & Observations

Time (IST) Temp. Dew Point Humidity Pressure Visibility Wind Dir Wind Speed Gust Speed Precip Events Conditions
12:00 AM 50.0 °F 48.2 °F 94% 30.42 in - East 2.3 mph - N/A   Clear
12:30 AM 53.6 °F 51.8 °F 94% 30.42 in - SE 8.1 mph - N/A   Clear
1:00 AM 52 °F 50 °F 91% 30.42 in 16 mi South 2.2 mph - -   Clear
1:00 AM 51.8 °F 50.0 °F 94% 30.42 in - South 2.3 mph - N/A   Clear
1:30 AM 50.0 °F 48.2 °F 94% 30.42 in - NE 1.2 mph - N/A   Clear
2:00 AM 50.0 °F 50.0 °F 100% 30.39 in - East 4.6 mph - N/A   Clear
2:30 AM 51.8 °F 51.8 °F 100% 30.39 in - ESE 4.6 mph - N/A   Clear
3:00 AM 51.8 °F 50.0 °F 94% 30.39 in - SE 4.6 mph - N/A   Clear
3:30 AM 50.0 °F 50.0 °F 100% 30.39 in - ESE 5.8 mph - N/A   Clear
4:00 AM 50.0 °F 50.0 °F 100% 30.36 in - SE 5.8 mph - N/A   Clear
4:30 AM 50.0 °F 50.0 °F 100% 30.36 in - ESE 3.5 mph - N/A   Clear
5:00 AM 50.0 °F 48.2 °F 94% 30.36 in - ESE 4.6 mph - N/A   Clear
5:30 AM 50.0 °F 50.0 °F 100% 30.36 in - ESE 3.5 mph - N/A   Clear
6:00 AM 50.0 °F 50.0 °F 100% 30.36 in - SSE 4.6 mph - N/A   Clear
6:30 AM 50.0 °F 50.0 °F 100% 30.33 in - South 8.1 mph - N/A   Clear
7:00 AM 50 °F 50 °F 99% 30.35 in 19 mi SSE 8.9 mph - -   Clear
7:00 AM 50.0 °F 50.0 °F 100% 30.33 in - SSE 9.2 mph - N/A   Clear
7:30 AM 50.0 °F 50.0 °F 100% 30.33 in - SSE 9.2 mph - N/A   Clear
8:00 AM 50.0 °F 50.0 °F 100% 30.33 in 6.2 mi SSE 8.1 mph - N/A   Mostly Cloudy
8:30 AM 51.8 °F 50.0 °F 94% 30.33 in - SSE 9.2 mph - N/A   Clear
9:00 AM 53.6 °F 50.0 °F 88% 30.33 in - South 6.9 mph - N/A   Clear
9:30 AM 55.4 °F 50.0 °F 82% 30.33 in - South 8.1 mph - N/A   Clear
10:00 AM 57.2 °F 51.8 °F 82% 30.33 in 6.2 mi SSW 8.1 mph - N/A   Scattered Clouds
10:30 AM 59.0 °F 51.8 °F 77% 30.33 in 6.2 mi SSW 9.2 mph - N/A   Scattered Clouds
11:00 AM 59.0 °F 51.8 °F 77% 30.33 in 6.2 mi SW 10.4 mph - N/A   Scattered Clouds
11:30 AM 60.8 °F 51.8 °F 72% 30.33 in 6.2 mi WSW 11.5 mph - N/A   Scattered Clouds
12:00 PM 62.6 °F 53.6 °F 72% 30.33 in 6.2 mi SW 11.5 mph - N/A   Partly Cloudy
12:30 PM 62.6 °F 53.6 °F 72% 30.33 in 6.2 mi SW 11.5 mph - N/A   Partly Cloudy
1:00 PM 64 °F 53 °F 59% 30.33 in 25 mi SW 15.7 mph - -   Scattered Clouds
1:00 PM 64.4 °F 53.6 °F 68% 30.33 in 6.2 mi SW 16.1 mph - N/A   Partly Cloudy
1:30 PM 64.4 °F 53.6 °F 68% 30.30 in 6.2 mi WSW 13.8 mph - N/A   Partly Cloudy
2:00 PM 64.4 °F 55.4 °F 73% 30.30 in 6.2 mi WSW 15.0 mph - N/A   Partly Cloudy
2:30 PM 64.4 °F 55.4 °F 73% 30.30 in 6.2 mi WSW 12.7 mph - N/A   Partly Cloudy
3:00 PM 64.4 °F 55.4 °F 73% 30.30 in 6.2 mi WSW 12.7 mph - N/A   Mostly Cloudy
3:30 PM 66.2 °F 55.4 °F 68% 30.27 in 6.2 mi WSW 11.5 mph - N/A   Mostly Cloudy
4:00 PM 66.2 °F 55.4 °F 68% 3.69 in 6.2 mi WSW 11.5 mph - N/A   Scattered Clouds
4:30 PM 66.2 °F 55.4 °F 68% 30.27 in 6.2 mi West 11.5 mph - N/A   Partly Cloudy
5:00 PM 66.2 °F 53.6 °F 64% 30.27 in 6.2 mi West 10.4 mph - N/A   Partly Cloudy
5:30 PM 66.2 °F 53.6 °F 64% 30.27 in 6.2 mi West 11.5 mph - N/A   Partly Cloudy
6:00 PM 64.4 °F 53.6 °F 68% 30.27 in 6.2 mi West 11.5 mph - N/A   Partly Cloudy
6:30 PM 64.4 °F 55.4 °F 73% 30.27 in 6.2 mi West 10.4 mph - N/A   Partly Cloudy
7:00 PM 63 °F 55 °F 68% 30.28 in 19 mi West 11.2 mph - -   Scattered Clouds
7:00 PM 64.4 °F 55.4 °F 73% 30.27 in 6.2 mi West 11.5 mph - N/A   Partly Cloudy
7:30 PM 60.8 °F 55.4 °F 82% 30.27 in 6.2 mi WNW 11.5 mph - N/A   Partly Cloudy
8:00 PM 59.0 °F 55.4 °F 88% 30.27 in 6.2 mi West 10.4 mph - N/A   Partly Cloudy
8:30 PM 57.2 °F 53.6 °F 88% 30.27 in 6.2 mi West 9.2 mph - N/A   Partly Cloudy
9:00 PM 57.2 °F 55.4 °F 94% 30.30 in 6.2 mi WSW 6.9 mph - N/A   Scattered Clouds
9:30 PM 57.2 °F 55.4 °F 94% 30.30 in 6.2 mi WSW 5.8 mph - N/A   Partly Cloudy
10:00 PM 57.2 °F 55.4 °F 94% 30.30 in 6.2 mi SW 6.9 mph - N/A   Partly Cloudy
10:30 PM 57.2 °F 55.4 °F 94% 30.30 in 6.2 mi WSW 9.2 mph - N/A   Partly Cloudy
11:00 PM 57.2 °F 55.4 °F 94% 30.30 in 6.2 mi WSW 8.1 mph - N/A   Mostly Cloudy
11:30 PM 57.2 °F 55.4 °F 94% 30.27 in 6.2 mi WSW 9.2 mph - N/A   Scattered Clouds